FENGYUN 1C DEB, 31739

Orbit data source: Space-Track

FENGYUN 1C DEB, 31739 is space debris in SSO originally from a launch on Mon, 10 May 1999 UTC launched from the Taiyaun Space Center, China (TSC). Fengyun 1C debris stems from the Chinese weather satellite Fengyun-1C, which was intentionally destroyed by a Chinese anti-satellite missile in 2007. This event dramatically increased the amount of space debris, with thousands of trackable fragments posing hazards to satellites and human spaceflight. The Fengyun 1C debris cloud has become a focal point in discussions about space sustainability and the need for international regulations to prevent the creation of new debris.

Loading next visibility...
Identifier
31739, 1999-025CEN
Orbit
SSO
Country
Flag of CNCN / PRC
Related business
Manufacturer
Unknown
Mission
Spacecraft
Bus & Motor
Unknown
Mass
Unknown
Launch date (UTC)
1999-05-10 (27 years ago)
Launch vehicle
Unknown
Launch site
Taiyaun Space Center, China (TSC)
Object type
Payload
Rocket body
Debris
Shape & HBR
Unknown shape, 0.1 m
Radar Cross Section
Small (<0.1 m²)

Expand to show TLE details & history
Last TLE update: 18 hours ago

TLE from 18 hours ago
0 FENGYUN 1C DEB
1 31739U 99025CEN 25341.43661230  .00000359  00000-0  17673-3 0  9992
2 31739  98.7483  36.8351 0128478  93.3552 268.2330 14.19214098954110
Epoch: 2025-12-07T10:28Z
TLE epoch observation values (Epoch: 2025-12-07T10:28:43.302Z)
Latitude
-0.00008°
Longitude
163.20467°
Altitude
834.968 km
Speed
7.433 km/s
True Right ascension
02h 27m 20s
True Declination
0° 00' 00"
Sunlit
Object was in full shadow at epoch
Visualization orbit readout
Latitude
Unknown
Longitude
Unknown
Altitude
Unknown
Speed
Unknown
Apparent Right ascension
Unknown
Apparent Declination
Unknown
Sunlit
N/A
Visualization observer readout
Local Sidereal Time
02:38:21
Azimuth
Unknown
Elevation
Unknown
Doppler factor
Unknown
Orbital elements
Apogee altitude
917.719 km
Perigee altitude
732.626 km
Semi-major axis
7,203.31 km
Eccentricity
0.01285
Inclination
98.7483°
RAAN
36.8351°
Arg. of periapsis
93.3552°
True anomaly
266.76234°
Mean anomaly
268.233°
Eccentric anomaly
267.49758°
Mean motion
3.55014 °/min
Orbital period
101.4 mins
BSTAR
0.00017673
Loading maneuver chart data...
Computing Atmospheric mass density...

Documentation

Showing up to 5 results
|